Location: Darlington Observatory
(36.4817°N, 105.8156°W)
Time: 00:18:06
(UTC-06:00)

MOS 1 - Visible Passes

Search period start: 25 October 2014 00:00
Search period end: 03 November 2014 23:00
Orbit: 879 x 893 km, 99.2° (Epoch: 24 October)

Date Brightness Start Highest point End Pass type
(mag) Time Alt. Az. Time Alt. Az. Time Alt. Az.
25 Oct 5.7 05:14:11 10° NNE 05:19:26 38° E 05:24:39 10° SSE visible
26 Oct 5.7 05:12:39 10° NNE 05:17:51 37° E 05:23:02 10° SSE visible
27 Oct 5.8 05:11:06 10° NNE 05:16:16 36° E 05:21:24 10° SSE visible
27 Oct 5.1 06:52:41 10° N 06:57:26 29° WNW 07:02:11 10° SW visible
28 Oct 5.9 05:09:34 10° NNE 05:14:41 34° E 05:19:47 10° SSE visible
28 Oct 5.1 06:51:05 10° N 06:55:53 30° WNW 07:00:41 10° SW visible
29 Oct 5.9 05:08:02 10° NE 05:13:06 33° E 05:18:09 10° SSE visible
29 Oct 5.0 06:49:28 10° N 06:54:19 31° WNW 06:59:11 10° SW visible
30 Oct 6.0 05:06:30 10° NE 05:11:31 32° E 05:16:31 10° SSE visible
30 Oct 5.0 06:47:51 10° N 06:52:46 32° WNW 06:57:41 10° SW visible
31 Oct 6.0 05:04:58 10° NE 05:09:56 31° E 05:14:53 10° SSE visible
31 Oct 4.9 06:46:14 10° N 06:51:12 33° WNW 06:56:10 10° SW visible
01 Nov 6.1 05:03:26 10° NE 05:08:21 30° E 05:13:15 10° SSE visible
01 Nov 4.9 06:44:38 10° N 06:49:39 34° WNW 06:54:40 10° SW visible
02 Nov 6.2 04:01:54 10° NE 04:06:46 29° E 04:11:36 10° SSE visible
02 Nov 4.9 05:43:01 10° N 05:48:05 35° WNW 05:53:09 10° SW visible
03 Nov 6.2 04:00:23 10° NE 04:05:11 28° E 04:09:58 10° SSE visible
03 Nov 4.8 05:41:25 10° N 05:46:31 36° WNW 05:51:38 10° SW visible
